Location: Chuathbaluk
(61.5726°N, 159.2454°W)
Time: 23:18:57
(UTC+00:00)

Transit 4A - Pass Details

Date: 05 December 2020
Orbit: 864 x 980 km, 66.8° (Epoch: 20 January)

Event Time Altitude Azimuth Distance (km) Brightness Sun altitude
Rises 22:42:53 0° 294° (WNW) 3,693 10.8 5.9°
Reaches altitude 10° 22:45:31 10° 297° (WNW) 2,743 10.2 5.8°
Maximum altitude 22:51:55 63° 19° (NNE) 1,086 8.2 5.8°
Drops below altitude 10° 22:58:12 10° 101° (E) 2,700 10.4 5.7°
Sets 23:00:46 0° 104° (ESE) 3,631 11.1 5.7°
